Mytholmroyd, United Kingdom
Current Conditions -  °F | °C
As of 7:50 PM on Sunday 23 Nov 2014 (Local Time) from EGNM Reporting Station
Clear Clear  
Wind Chill: 31°   Ceiling: Unl
Heat Index: 37°   Visibility: 6mi
Dew Point: 36°   Wind: 9mph
Humidity: 93%   Direction: 280°W
Pressure: 30.06"   Gusts: NA
Location:  53.73°N, 1.98°W
Report Text: EGNM 231950Z 28008KT CAVOK 03/02 Q1018
Loading
Personal Weather Stations






























Interactive Weather Map New forecast layout! Learn more

10-Day Weather Forecast

Advertisements
Track Severe Weather on mobile